Regional Weather Roundup
Issued by NWS

Home | Current Version | Previous Version | Graphics & Text | Print | Product List | Glossary On
Versions: 1 2 3 4 5 6 7 8 9 10 11 12 13 14 15 16 17 18 19 20 21 22 23 24 25 26 27 28 29 30 31 32 33 34 35 36 37 38 39 40 41 42 43 44 45 46 47 48 49 50
000
ASUS43 KLOT 271700
RWRIL

ILLINOIS REGIONAL WEATHER ROUNDUP
NATIONAL WEATHER SERVICE CHICAGO/ROMEOVILLE IL
1100 AM CST TUE JAN 27 2015

NOTE: "FAIR" INDICATES FEW OR NO CLOUDS BELOW 12,000 FEET WITH NO
SIGNIFICANT WEATHER AND/OR OBSTRUCTIONS TO VISIBILITY.

* THESE STATIONS ARE NOT UNDER NWS QUALITY CONTROL. THEY ALSO MAY NOT
  REPORT WEATHER SUCH AS PRECIPITATION OR FOG.

ILZ001-002-007-009-015-016-024-271800-
NORTHWEST ILLINOIS

CITY           SKY/WX    TMP DP  RH WIND       PRES   REMARKS
MOLINE         CLOUDY    29  22  75 N10       30.19R WCI  20
STERLING*      CLOUDY    28  23  80 NE6       30.19R WCI  22
$$

ILZ003-004-008-010-011-017-018-271800-
NORTH CENTRAL ILLINOIS

CITY           SKY/WX    TMP DP  RH WIND       PRES   REMARKS
ROCKFORD       CLOUDY    29  24  82 E7        30.19R HAZE    WCI  22
$$

ILZ005-006-012>014-019>023-271800-
NORTHEAST ILLINOIS

CITY           SKY/WX    TMP DP  RH WIND       PRES   REMARKS
CHICAGO-OHARE  CLOUDY    29  20  69 N8        30.16R WCI  21
CHICAGO-MIDWAY CLOUDY    31  19  61 NE9       30.16R WCI  23
AURORA         CLOUDY    31  25  78 NE6       30.16R HAZE    WCI  25
WAUKEGAN       CLOUDY    28  18  66 NE10      30.17R WCI  19
DUPAGE AIRPORT CLOUDY    29  21  72 NE9       30.15R WCI  20
WHEELING       CLOUDY    29  19  66 NE9       30.18R WCI  20
NORTHERLY ISL    N/A     29  19  66 NE9         N/A  WCI  21
$$

LMZ740>746-271800-
SOUTHERN LAKE MICHIGAN

STATION/POSITION SKY/WX   TEMP    WIND        PRES    VSBY  WAVE
                          AIR SEA DIR/SP/G                  HT/PER
                          (F)     (DEG/KT/KT) (MB)    (MI)  (FT/S)
WAUKEGAN HARBOR            28      50/ 12/ 14   N/A
HARRISON CRIB              28      50/ 11/ 14   N/A
BURNHAM HARBOR             28      60/  9/ 12   N/A
CALUMET HARBOR             28      40/  8/ 11   N/A
MICHIGAN CITY              25      30/  5/  7   N/A
$$

ILZ025>027-034>036-040-047-049-050-058-095>099-271800-
WEST-CENTRAL ILLINOIS

CITY           SKY/WX    TMP DP  RH WIND       PRES   REMARKS
QUINCY         SUNNY     41  31  67 NE12      30.17R
$$

ILZ028>032-037-038-041>044-048-051>054-059>061-271800-
CENTRAL ILLINOIS

CITY           SKY/WX    TMP DP  RH WIND       PRES   REMARKS
DECATUR        CLOUDY    33  30  88 NE10      30.15R WCI  25
PEORIA         CLOUDY    31  25  78 NE9       30.18R WCI  23
SPRINGFIELD    CLOUDY    33  28  81 N9        30.17R WCI  25
TAYLORVILLE    NOT AVBL
$$

ILZ033-039-045-046-055>057-062-063-271800-
EAST-CENTRAL ILLINOIS

CITY           SKY/WX    TMP DP  RH WIND       PRES   REMARKS
CHAMPAIGN      CLOUDY    30  26  85 NE9       30.14R WCI  22
MATTOON        CLOUDY    31  28  89 N10       30.12R WCI  22
$$

ILZ079-100>102-271800-
SOUTHWEST ILLINOIS

CITY           SKY/WX    TMP DP  RH WIND       PRES   REMARKS
ALTON          PTSUNNY   39  32  75 NW12      30.16R WCI  32
BELLEVILLE     SUNNY     43  33  66 N14       30.16R
CAHOKIA*       PTSUNNY   42  33  70 N15       30.17R
$$

ILZ064>066-069>071-074>076-080>082-084>086-088>090-092>094-271800-
SOUTH-CENTRAL ILLINOIS

CITY           SKY/WX    TMP DP  RH WIND       PRES   REMARKS
CARBONDALE     MOSUNNY   42  31  64 N12G18    30.15R
MARION         PTSUNNY   41  32  70 N12       30.15R
MT. VERNON     CLOUDY    39  28  65 N9        30.14R WCI  33
$$

ILZ067-068-072-073-078-083-087-091-271800-
SOUTHEAST ILLINOIS

CITY           SKY/WX    TMP DP  RH WIND       PRES   REMARKS
LAWRENCEVILLE  CLOUDY    33  30  88 NE9       30.13R WCI  25
$$

ABBREVIATIONS USED IN REMARKS
   TC - TEMPERATURE IN CELSIUS
  WCI - WIND CHILL INDEX
   HX - HEAT INDEX
  VSB - VISIBILITY
$$




USA.gov is the U.S. government's official web portal to all federal, state and local government web resources and services.